TITAN 3C TRANSTAGE DEB, 35502

Orbit data source: Space-Track

TITAN 3C TRANSTAGE DEB, 35502 is space debris in HEO originally from a launch on Tue, 21 Dec 1965 UTC launched from the Air Force Eastern Test Range (AFETR). Debris objects in space refer to the collection of defunct objects orbiting the Earth. Examples of debris include non-operational satellites, rocket bodies, and fragments generated from explosions, collisions, or faulty payload assembly.

Loading next visibility...
Identifier
35502, 1965-108DH
Orbit
HEO
Country
Flag of USUS
Related business
Manufacturer
Unknown
Mission
Spacecraft
Bus & Motor
Unknown
Mass
Unknown
Launch date (UTC)
1965-12-21 (60 years ago)
Launch vehicle
Unknown
Launch site
Air Force Eastern Test Range (AFETR)
Object type
Payload
Rocket body
Debris
Shape & HBR
Unknown shape, 1.1 m
Radar Cross Section
Medium (>0.1 m² and <1 m²)

Expand to show TLE details & history
Last TLE update: 1 month ago

TLE from 1 month ago
0 TITAN 3C TRANSTAGE DEB
1 35502U 65108DH  26136.29993700  .00000297  00000-0  71973-3 0  9990
2 35502  26.6689 209.4761 6607773  68.1505 347.1469  3.03814933  1384
Epoch: 2026-05-16T07:11Z
TLE epoch observation values (Epoch: 2026-05-16T07:11:54.556Z)
Latitude
0.00004°
Longitude
-132.43919°
Altitude
2,712.87 km
Speed
8.24 km/s
True Right ascension
13h 58m 13s
True Declination
0° 00' 00"
Sunlit
Object was in full shadow at epoch
Visualization orbit readout
Latitude
Unknown
Longitude
Unknown
Altitude
Unknown
Speed
Unknown
Apparent Right ascension
Unknown
Apparent Declination
Unknown
Sunlit
N/A
Visualization observer readout
Local Sidereal Time
17:39:07
Azimuth
Unknown
Elevation
Unknown
Doppler factor
Unknown
Orbital elements
Apogee altitude
27,071.027 km
Perigee altitude
454.035 km
Semi-major axis
20,140.668 km
Eccentricity
0.66078
Inclination
26.6689°
RAAN
209.4761°
Arg. of periapsis
68.1505°
True anomaly
291.75715°
Mean anomaly
347.1469°
Eccentric anomaly
325.94694°
Mean motion
0.75933 °/min
Orbital period
474.1 mins
BSTAR
0.00071973

Documentation

Showing up to 5 results
|